Location: Le Petit-Vavre
(46.5081°N, 1.5239°E)
Time: 15:54:33
(UTC+00:00)

Cosmos 2322 Rocket - Pass Details

Date: 03 March 2021
Orbit: 832 x 852 km, 71.0° (Epoch: 18 April)

Event Time Altitude Azimuth Distance (km) Brightness Sun altitude
Rises 19:06:06 0° 215° (SW) 3,364 5.7 -15.1°
Reaches altitude 10° 19:08:33 10° 219° (SW) 2,434 5.0 -15.5°
Maximum altitude 19:14:05 62° 300° (WNW) 938 2.7 -16.4°
Drops below altitude 10° 19:19:39 10° 21° (NNE) 2,456 4.5 -17.4°
Sets 19:22:09 0° 25° (NNE) 3,397 5.2 -17.8°
